GFSFLT1_prec_precacc24_114.txt.gz
Total_Precipitation_Accumulation
0.00 0.00 0.00 0.00 0.00 0.00 0.00 0.00 0.00 0.00 0.00 0.00 0.00 0.00 0.02 0.06 0.10 0.10 0.14 0.20 0.22 0.36 0.37 0.51 0.76 0.83 0.46 0.43 0.54 0.57 0.54 0.49
0.00 0.00 0.00 0.00 0.00 0.00 0.00 0.00 0.00 0.00 0.00 0.01 0.00 0.01 0.02 0.05 0.14 0.16 0.22 0.31 0.28 0.24 0.34 0.36 0.57 0.62 0.47 0.30 0.45 0.61 0.63 0.52
0.00 0.00 0.00 0.00 0.00 0.00 0.00 0.00 0.00 0.00 0.00 0.00 0.00 0.00 0.01 0.04 0.11 0.25 0.25 0.44 0.42 0.27 0.33 0.32 0.40 0.47 0.49 0.36 0.33 0.46 0.48 0.44
0.00 0.00 0.00 0.00 0.00 0.00 0.00 0.00 0.00 0.00 0.00 0.00 0.01 0.01 0.02 0.04 0.08 0.19 0.33 0.43 0.51 0.50 0.41 0.33 0.23 0.19 0.27 0.37 0.36 0.26 0.23 0.31
0.00 0.00 0.00 0.00 0.00 0.00 0.00 0.00 0.00 0.01 0.00 0.00 0.00 0.00 0.00 0.01 0.01 0.06 0.17 0.44 0.63 0.40 0.54 0.53 0.44 0.23 0.22 0.29 0.39 0.35 0.26 0.28
0.00 0.00 0.00 0.00 0.00 0.00 0.00 0.00 0.00 0.00 0.00 0.00 0.00 0.00 0.00 0.01 0.01 0.03 0.09 0.25 0.53 0.63 0.30 0.46 0.43 0.23 0.14 0.18 0.30 0.39 0.32 0.28
0.00 0.00 0.00 0.00 0.00 0.00 0.00 0.00 0.01 0.01 0.01 0.00 0.00 0.00 0.00 0.00 0.00 0.00 0.02 0.11 0.29 0.46 0.61 0.44 0.39 0.29 0.11 0.06 0.13 0.18 0.26 0.30
0.00 0.00 0.00 0.00 0.00 0.00 0.00 0.00 0.01 0.02 0.01 0.00 0.00 0.00 0.00 0.00 0.00 0.00 0.01 0.03 0.11 0.27 0.35 0.53 0.49 0.40 0.22 0.12 0.10 0.13 0.18 0.24
0.00 0.00 0.00 0.00 0.00 0.00 0.00 0.00 0.01 0.01 0.01 0.00 0.00 0.00 0.00 0.00 0.01 0.00 0.00 0.01 0.05 0.10 0.19 0.28 0.39 0.62 0.55 0.34 0.16 0.11 0.13 0.14
0.00 0.00 0.00 0.00 0.00 0.00 0.00 0.00 0.01 0.01 0.01 0.01 0.00 0.00 0.00 0.00 0.00 0.00 0.00 0.00 0.05 0.08 0.09 0.16 0.30 0.52 0.59 0.58 0.41 0.21 0.15 0.14
0.00 0.00 0.00 0.00 0.00 0.00 0.00 0.00 0.00 0.00 0.01 0.01 0.00 0.00 0.00 0.00 0.00 0.00 0.00 0.00 0.03 0.06 0.05 0.06 0.12 0.24 0.31 0.34 0.39 0.35 0.31 0.27
0.00 0.00 0.00 0.00 0.00 0.00 0.00 0.00 0.00 0.00 0.01 0.01 0.01 0.01 0.00 0.00 0.01 0.00 0.00 0.00 0.00 0.02 0.03 0.02 0.05 0.11 0.19 0.24 0.19 0.20 0.27 0.34
0.00 0.00 0.00 0.00 0.00 0.00 0.00 0.01 0.01 0.02 0.02 0.02 0.01 0.01 0.01 0.01 0.01 0.00 0.00 0.00 0.00 0.00 0.01 0.01 0.02 0.06 0.09 0.12 0.16 0.24 0.19 0.21
0.03 0.03 0.02 0.04 0.04 0.02 0.02 0.03 0.04 0.05 0.03 0.02 0.02 0.02 0.02 0.02 0.02 0.00 0.00 0.00 0.00 0.00 0.01 0.01 0.01 0.05 0.05 0.07 0.09 0.12 0.23 0.25
0.20 0.23 0.13 0.15 0.15 0.13 0.08 0.09 0.13 0.12 0.07 0.07 0.08 0.09 0.07 0.05 0.02 0.00 0.00 0.00 0.00 0.00 0.00 0.01 0.00 0.00 0.02 0.03 0.04 0.05 0.09 0.16
0.22 0.68 0.48 0.22 0.19 0.22 0.23 0.21 0.31 0.32 0.24 0.18 0.14 0.11 0.07 0.06 0.04 0.01 0.00 0.00 0.00 0.00 0.00 0.00 0.00 0.00 0.00 0.01 0.01 0.01 0.01 0.03
0.22 0.52 1.05 0.58 0.39 0.37 0.43 0.52 0.65 0.52 0.43 0.38 0.23 0.16 0.16 0.11 0.06 0.03 0.01 0.01 0.01 0.00 0.00 0.00 0.00 0.00 0.01 0.01 0.01 0.02 0.04 0.03
0.26 0.34 0.93 0.91 0.67 0.63 0.53 0.73 0.85 0.72 0.64 0.55 0.37 0.27 0.23 0.16 0.10 0.05 0.02 0.01 0.01 0.00 0.00 0.00 0.00 0.00 0.00 0.00 0.00 0.01 0.03 0.03
0.29 0.29 0.55 0.87 0.62 0.53 0.52 0.61 0.82 0.76 0.63 0.59 0.49 0.32 0.26 0.20 0.12 0.08 0.03 0.01 0.01 0.01 0.00 0.00 0.01 0.00 0.01 0.00 0.00 0.03 0.04 0.03

GFSFLT1_prec_precacc24_117.txt.gz
Total_Precipitation_Accumulation
0.00 0.00 0.00 0.00 0.00 0.00 0.00 0.00 0.00 0.00 0.00 0.00 0.00 0.00 0.02 0.06 0.09 0.08 0.11 0.15 0.16 0.21 0.28 0.49 0.76 0.83 0.46 0.43 0.54 0.59 0.55 0.50
0.00 0.00 0.00 0.00 0.00 0.00 0.00 0.00 0.00 0.00 0.00 0.00 0.00 0.00 0.01 0.05 0.10 0.12 0.15 0.19 0.22 0.17 0.28 0.32 0.57 0.61 0.47 0.30 0.45 0.62 0.64 0.52
0.00 0.00 0.00 0.00 0.00 0.00 0.00 0.00 0.00 0.00 0.00 0.00 0.00 0.00 0.01 0.02 0.06 0.14 0.15 0.31 0.36 0.21 0.28 0.29 0.39 0.47 0.49 0.36 0.33 0.46 0.48 0.45
0.00 0.00 0.00 0.00 0.00 0.00 0.00 0.00 0.00 0.00 0.00 0.00 0.00 0.01 0.01 0.02 0.03 0.07 0.17 0.29 0.42 0.45 0.37 0.31 0.22 0.19 0.27 0.38 0.36 0.26 0.23 0.31
0.00 0.00 0.00 0.00 0.00 0.00 0.00 0.00 0.00 0.00 0.00 0.00 0.00 0.00 0.00 0.01 0.01 0.02 0.07 0.30 0.52 0.36 0.53 0.52 0.43 0.23 0.22 0.29 0.39 0.35 0.26 0.28
0.00 0.00 0.00 0.00 0.00 0.00 0.00 0.00 0.00 0.00 0.00 0.00 0.00 0.00 0.00 0.01 0.01 0.02 0.08 0.21 0.49 0.61 0.29 0.45 0.43 0.22 0.14 0.18 0.30 0.39 0.32 0.28
0.00 0.00 0.00 0.00 0.00 0.00 0.00 0.00 0.00 0.01 0.01 0.00 0.00 0.00 0.00 0.00 0.00 0.00 0.02 0.11 0.29 0.46 0.60 0.44 0.39 0.30 0.11 0.06 0.12 0.17 0.24 0.28
0.00 0.00 0.00 0.00 0.00 0.00 0.00 0.00 0.00 0.01 0.01 0.00 0.00 0.00 0.00 0.00 0.00 0.00 0.01 0.03 0.12 0.28 0.35 0.53 0.49 0.39 0.20 0.09 0.07 0.11 0.15 0.18
0.00 0.00 0.00 0.00 0.00 0.00 0.00 0.00 0.00 0.01 0.01 0.00 0.00 0.01 0.01 0.00 0.01 0.01 0.00 0.01 0.05 0.10 0.20 0.28 0.40 0.62 0.50 0.29 0.14 0.10 0.11 0.13
0.00 0.00 0.00 0.00 0.00 0.00 0.00 0.00 0.00 0.01 0.01 0.01 0.00 0.00 0.00 0.01 0.01 0.01 0.01 0.01 0.05 0.09 0.10 0.17 0.30 0.51 0.56 0.54 0.39 0.20 0.15 0.14
0.00 0.00 0.00 0.00 0.00 0.00 0.00 0.00 0.00 0.00 0.01 0.01 0.00 0.00 0.00 0.00 0.01 0.01 0.01 0.01 0.03 0.06 0.06 0.06 0.13 0.25 0.28 0.31 0.37 0.33 0.30 0.27
0.00 0.00 0.00 0.00 0.00 0.00 0.00 0.00 0.00 0.00 0.01 0.01 0.01 0.00 0.00 0.00 0.01 0.01 0.01 0.01 0.01 0.02 0.03 0.02 0.06 0.12 0.19 0.21 0.17 0.19 0.27 0.33
0.00 0.00 0.00 0.00 0.00 0.00 0.00 0.01 0.01 0.02 0.02 0.02 0.01 0.00 0.01 0.02 0.01 0.01 0.02 0.01 0.01 0.00 0.01 0.01 0.02 0.06 0.09 0.13 0.14 0.19 0.16 0.19
0.03 0.03 0.02 0.04 0.04 0.02 0.02 0.03 0.04 0.05 0.03 0.02 0.03 0.04 0.04 0.03 0.03 0.02 0.02 0.01 0.01 0.00 0.01 0.01 0.02 0.06 0.06 0.08 0.09 0.10 0.20 0.23
0.20 0.23 0.13 0.15 0.15 0.13 0.08 0.09 0.13 0.12 0.07 0.08 0.09 0.11 0.09 0.07 0.05 0.04 0.03 0.02 0.01 0.00 0.01 0.01 0.00 0.01 0.03 0.03 0.04 0.05 0.08 0.16
0.22 0.68 0.48 0.22 0.19 0.22 0.23 0.21 0.31 0.32 0.24 0.19 0.16 0.12 0.09 0.07 0.06 0.06 0.05 0.02 0.01 0.00 0.01 0.00 0.01 0.01 0.01 0.02 0.01 0.01 0.01 0.03
0.22 0.52 1.04 0.57 0.39 0.37 0.43 0.52 0.65 0.52 0.43 0.38 0.24 0.18 0.17 0.13 0.09 0.08 0.07 0.04 0.01 0.01 0.01 0.01 0.01 0.01 0.02 0.02 0.01 0.01 0.01 0.01
0.26 0.34 0.93 0.89 0.62 0.59 0.53 0.73 0.85 0.71 0.65 0.57 0.40 0.30 0.25 0.21 0.13 0.10 0.10 0.06 0.02 0.01 0.01 0.01 0.00 0.00 0.01 0.01 0.01 0.01 0.01 0.02
0.29 0.29 0.55 0.87 0.61 0.48 0.48 0.60 0.82 0.76 0.65 0.63 0.57 0.39 0.31 0.30 0.20 0.15 0.12 0.08 0.05 0.03 0.01 0.01 0.01 0.01 0.01 0.01 0.01 0.01 0.02 0.02

GFSFLT1_prec_precacc24_123.txt.gz
Total_Precipitation_Accumulation
0.00 0.00 0.00 0.00 0.00 0.00 0.00 0.00 0.00 0.00 0.00 0.00 0.00 0.00 0.01 0.02 0.02 0.01 0.02 0.04 0.03 0.05 0.13 0.37 0.72 0.82 0.46 0.43 0.54 0.59 0.55 0.50
0.00 0.00 0.00 0.00 0.00 0.00 0.00 0.00 0.00 0.00 0.00 0.00 0.00 0.01 0.01 0.04 0.03 0.03 0.03 0.05 0.06 0.09 0.15 0.25 0.56 0.61 0.47 0.30 0.45 0.62 0.65 0.53
0.00 0.00 0.00 0.00 0.00 0.00 0.00 0.00 0.00 0.00 0.00 0.01 0.04 0.08 0.04 0.02 0.04 0.05 0.05 0.07 0.08 0.10 0.16 0.22 0.40 0.48 0.50 0.37 0.33 0.47 0.50 0.46
0.00 0.00 0.00 0.00 0.00 0.00 0.00 0.00 0.00 0.00 0.01 0.04 0.07 0.25 0.19 0.06 0.05 0.04 0.11 0.15 0.19 0.28 0.23 0.25 0.22 0.21 0.29 0.39 0.38 0.28 0.25 0.32
0.00 0.00 0.00 0.00 0.00 0.00 0.00 0.01 0.03 0.05 0.08 0.10 0.12 0.11 0.05 0.01 0.01 0.03 0.07 0.14 0.26 0.21 0.36 0.41 0.42 0.24 0.24 0.31 0.44 0.37 0.27 0.29
0.00 0.00 0.00 0.00 0.00 0.00 0.00 0.00 0.01 0.03 0.07 0.09 0.13 0.14 0.18 0.08 0.01 0.02 0.03 0.06 0.20 0.34 0.14 0.23 0.33 0.20 0.15 0.19 0.33 0.42 0.34 0.29
0.00 0.00 0.00 0.00 0.00 0.00 0.00 0.00 0.00 0.01 0.02 0.03 0.03 0.04 0.07 0.08 0.05 0.01 0.03 0.05 0.08 0.17 0.36 0.20 0.18 0.17 0.08 0.07 0.14 0.19 0.26 0.29
0.00 0.00 0.00 0.00 0.00 0.00 0.00 0.00 0.01 0.01 0.01 0.01 0.01 0.01 0.01 0.00 0.01 0.02 0.03 0.07 0.07 0.11 0.14 0.26 0.27 0.23 0.17 0.09 0.07 0.12 0.16 0.19
0.00 0.00 0.00 0.00 0.00 0.00 0.00 0.00 0.00 0.01 0.01 0.00 0.00 0.01 0.01 0.01 0.01 0.01 0.01 0.01 0.03 0.05 0.09 0.09 0.18 0.39 0.37 0.25 0.14 0.11 0.11 0.14
0.00 0.00 0.00 0.00 0.00 0.00 0.00 0.00 0.00 0.01 0.01 0.01 0.00 0.00 0.00 0.01 0.01 0.02 0.02 0.01 0.01 0.02 0.06 0.10 0.18 0.34 0.43 0.44 0.32 0.20 0.16 0.14
0.00 0.00 0.00 0.00 0.00 0.00 0.00 0.00 0.00 0.00 0.01 0.01 0.00 0.00 0.00 0.00 0.01 0.01 0.02 0.01 0.02 0.03 0.05 0.05 0.10 0.21 0.25 0.29 0.38 0.33 0.31 0.28
0.00 0.00 0.00 0.00 0.00 0.00 0.00 0.00 0.00 0.00 0.01 0.01 0.01 0.00 0.00 0.00 0.01 0.01 0.02 0.02 0.01 0.04 0.05 0.03 0.04 0.10 0.19 0.23 0.19 0.20 0.26 0.33
0.00 0.00 0.00 0.00 0.00 0.00 0.00 0.01 0.01 0.02 0.02 0.02 0.01 0.00 0.01 0.02 0.02 0.01 0.02 0.03 0.02 0.02 0.04 0.03 0.04 0.05 0.09 0.15 0.17 0.21 0.17 0.20
0.05 0.03 0.02 0.04 0.04 0.02 0.02 0.03 0.04 0.05 0.03 0.02 0.03 0.04 0.04 0.04 0.03 0.03 0.03 0.04 0.03 0.02 0.04 0.04 0.03 0.07 0.07 0.09 0.10 0.12 0.21 0.24
0.26 0.28 0.16 0.15 0.15 0.13 0.08 0.09 0.13 0.10 0.07 0.08 0.09 0.11 0.09 0.09 0.08 0.08 0.07 0.05 0.03 0.02 0.02 0.03 0.03 0.03 0.04 0.05 0.06 0.06 0.09 0.16
0.27 0.69 0.49 0.23 0.19 0.20 0.21 0.18 0.24 0.24 0.22 0.18 0.16 0.12 0.08 0.07 0.07 0.08 0.07 0.06 0.03 0.02 0.04 0.04 0.02 0.03 0.04 0.04 0.03 0.03 0.04 0.05
0.22 0.49 0.98 0.49 0.29 0.26 0.28 0.33 0.41 0.40 0.35 0.33 0.23 0.18 0.17 0.14 0.10 0.09 0.10 0.10 0.07 0.07 0.03 0.03 0.06 0.04 0.05 0.05 0.03 0.01 0.02 0.03
0.25 0.31 0.87 0.79 0.43 0.35 0.32 0.41 0.52 0.49 0.50 0.47 0.34 0.26 0.25 0.21 0.14 0.11 0.13 0.14 0.12 0.10 0.09 0.04 0.03 0.04 0.06 0.04 0.02 0.01 0.02 0.03
0.29 0.28 0.52 0.83 0.56 0.42 0.40 0.52 0.68 0.58 0.55 0.52 0.41 0.29 0.24 0.29 0.21 0.17 0.15 0.17 0.18 0.14 0.11 0.08 0.04 0.03 0.08 0.05 0.03 0.01 0.03 0.02

GFSFLT1_prec_precacc24_126.txt.gz
Total_Precipitation_Accumulation
0.00 0.00 0.00 0.00 0.00 0.00 0.00 0.00 0.00 0.00 0.00 0.00 0.00 0.00 0.01 0.01 0.01 0.01 0.01 0.01 0.01 0.02 0.04 0.10 0.30 0.43 0.37 0.36 0.49 0.58 0.55 0.50
0.00 0.00 0.00 0.00 0.00 0.00 0.00 0.00 0.00 0.00 0.00 0.00 0.00 0.01 0.01 0.03 0.01 0.01 0.01 0.02 0.02 0.05 0.08 0.09 0.21 0.36 0.41 0.28 0.41 0.61 0.65 0.53
0.00 0.00 0.00 0.00 0.00 0.00 0.00 0.00 0.00 0.00 0.00 0.01 0.04 0.08 0.04 0.02 0.03 0.02 0.02 0.02 0.03 0.08 0.11 0.15 0.20 0.33 0.46 0.35 0.32 0.47 0.52 0.48
0.00 0.00 0.00 0.00 0.00 0.00 0.00 0.00 0.00 0.00 0.01 0.04 0.07 0.26 0.20 0.06 0.05 0.02 0.09 0.08 0.08 0.08 0.11 0.15 0.15 0.16 0.27 0.39 0.39 0.29 0.26 0.34
0.00 0.00 0.00 0.00 0.00 0.00 0.00 0.01 0.03 0.05 0.08 0.10 0.13 0.13 0.07 0.03 0.03 0.08 0.15 0.10 0.11 0.05 0.12 0.20 0.31 0.23 0.23 0.32 0.44 0.38 0.29 0.31
0.00 0.00 0.00 0.00 0.00 0.00 0.00 0.00 0.01 0.03 0.07 0.09 0.19 0.22 0.23 0.19 0.25 0.31 0.31 0.24 0.14 0.13 0.08 0.17 0.30 0.21 0.16 0.21 0.35 0.44 0.36 0.31
0.00 0.00 0.00 0.00 0.00 0.00 0.00 0.00 0.00 0.01 0.04 0.06 0.09 0.10 0.12 0.13 0.19 0.27 0.31 0.27 0.18 0.15 0.24 0.19 0.15 0.11 0.09 0.10 0.16 0.21 0.28 0.31
0.00 0.00 0.00 0.00 0.00 0.00 0.00 0.01 0.01 0.01 0.02 0.03 0.04 0.05 0.05 0.06 0.06 0.07 0.14 0.18 0.14 0.13 0.18 0.19 0.20 0.16 0.08 0.07 0.10 0.14 0.17 0.21
0.00 0.00 0.00 0.00 0.00 0.01 0.01 0.01 0.02 0.02 0.03 0.02 0.01 0.03 0.02 0.02 0.02 0.02 0.02 0.03 0.04 0.06 0.07 0.08 0.08 0.18 0.19 0.15 0.10 0.10 0.12 0.15
0.02 0.02 0.02 0.02 0.01 0.01 0.01 0.00 0.01 0.01 0.01 0.01 0.00 0.00 0.00 0.01 0.01 0.02 0.02 0.01 0.01 0.02 0.04 0.04 0.05 0.10 0.22 0.29 0.21 0.11 0.11 0.12
0.05 0.04 0.03 0.03 0.01 0.01 0.00 0.00 0.00 0.00 0.00 0.00 0.00 0.00 0.00 0.00 0.01 0.01 0.02 0.01 0.01 0.02 0.04 0.03 0.05 0.09 0.11 0.17 0.22 0.17 0.17 0.21
0.06 0.04 0.02 0.02 0.01 0.00 0.00 0.00 0.00 0.00 0.00 0.01 0.01 0.00 0.00 0.00 0.01 0.01 0.02 0.02 0.01 0.03 0.04 0.03 0.03 0.07 0.15 0.19 0.16 0.14 0.20 0.31
0.06 0.05 0.01 0.01 0.01 0.01 0.01 0.01 0.01 0.01 0.02 0.02 0.01 0.00 0.01 0.02 0.02 0.01 0.02 0.03 0.02 0.02 0.03 0.03 0.03 0.04 0.06 0.12 0.16 0.20 0.17 0.21
0.08 0.04 0.02 0.04 0.05 0.03 0.02 0.03 0.02 0.03 0.03 0.02 0.03 0.04 0.04 0.04 0.03 0.03 0.03 0.04 0.03 0.02 0.04 0.04 0.03 0.05 0.05 0.08 0.10 0.11 0.21 0.25
0.32 0.29 0.17 0.15 0.15 0.12 0.07 0.05 0.05 0.04 0.05 0.08 0.09 0.11 0.09 0.09 0.08 0.08 0.07 0.05 0.03 0.03 0.03 0.05 0.04 0.04 0.04 0.05 0.05 0.06 0.10 0.18
0.46 0.89 0.58 0.25 0.19 0.16 0.13 0.09 0.12 0.17 0.19 0.18 0.16 0.12 0.08 0.07 0.07 0.08 0.07 0.06 0.04 0.02 0.05 0.05 0.04 0.04 0.05 0.05 0.04 0.05 0.05 0.06
0.31 0.55 0.95 0.42 0.20 0.20 0.23 0.24 0.24 0.27 0.28 0.27 0.21 0.17 0.17 0.14 0.10 0.09 0.10 0.10 0.07 0.07 0.04 0.05 0.07 0.05 0.08 0.07 0.05 0.03 0.04 0.05
0.26 0.31 0.81 0.72 0.32 0.25 0.23 0.29 0.32 0.32 0.36 0.36 0.28 0.24 0.23 0.21 0.14 0.11 0.13 0.14 0.12 0.11 0.10 0.06 0.04 0.05 0.07 0.05 0.05 0.04 0.05 0.06
0.24 0.27 0.51 0.81 0.53 0.39 0.34 0.40 0.54 0.52 0.50 0.46 0.35 0.26 0.23 0.28 0.20 0.16 0.15 0.17 0.18 0.14 0.12 0.09 0.06 0.04 0.10 0.09 0.09 0.05 0.05 0.04

GFSFLT1_prec_precacc24_132.txt.gz
Total_Precipitation_Accumulation
0.00 0.00 0.00 0.00 0.00 0.00 0.00 0.00 0.00 0.00 0.00 0.00 0.00 0.00 0.00 0.00 0.00 0.00 0.00 0.00 0.00 0.01 0.01 0.02 0.02 0.01 0.01 0.06 0.12 0.18 0.26 0.36
0.00 0.00 0.00 0.00 0.00 0.00 0.00 0.00 0.00 0.00 0.00 0.01 0.00 0.01 0.00 0.02 0.00 0.00 0.00 0.00 0.00 0.01 0.01 0.01 0.01 0.01 0.02 0.10 0.14 0.18 0.39 0.43
0.00 0.00 0.00 0.00 0.00 0.00 0.00 0.00 0.00 0.00 0.00 0.01 0.05 0.09 0.04 0.02 0.02 0.00 0.00 0.00 0.01 0.03 0.02 0.02 0.02 0.02 0.07 0.12 0.11 0.16 0.32 0.46
0.00 0.00 0.00 0.00 0.00 0.00 0.00 0.00 0.00 0.00 0.01 0.04 0.07 0.27 0.20 0.07 0.04 0.01 0.07 0.05 0.06 0.04 0.05 0.04 0.03 0.03 0.07 0.10 0.11 0.09 0.13 0.30
0.00 0.00 0.00 0.00 0.00 0.00 0.00 0.01 0.03 0.05 0.08 0.10 0.13 0.13 0.07 0.03 0.03 0.09 0.15 0.14 0.17 0.15 0.14 0.13 0.12 0.14 0.06 0.07 0.13 0.11 0.13 0.19
0.00 0.00 0.00 0.00 0.00 0.00 0.00 0.00 0.01 0.03 0.07 0.09 0.19 0.22 0.24 0.20 0.27 0.41 0.44 0.46 0.50 0.42 0.40 0.39 0.42 0.32 0.21 0.23 0.30 0.26 0.21 0.24
0.00 0.00 0.00 0.00 0.00 0.00 0.00 0.00 0.00 0.02 0.09 0.07 0.11 0.13 0.18 0.22 0.26 0.34 0.44 0.52 0.71 0.82 0.90 0.84 0.85 0.74 0.49 0.36 0.33 0.30 0.27 0.30
0.01 0.01 0.01 0.00 0.00 0.01 0.01 0.01 0.01 0.01 0.03 0.05 0.09 0.13 0.23 0.13 0.14 0.21 0.22 0.26 0.19 0.21 0.33 0.31 0.32 0.39 0.32 0.28 0.24 0.20 0.22 0.21
0.05 0.04 0.03 0.03 0.02 0.01 0.01 0.02 0.02 0.02 0.04 0.04 0.06 0.16 0.15 0.08 0.09 0.11 0.10 0.09 0.06 0.08 0.08 0.12 0.11 0.14 0.15 0.16 0.16 0.13 0.14 0.17
0.16 0.13 0.11 0.09 0.08 0.03 0.01 0.01 0.02 0.02 0.03 0.04 0.04 0.06 0.04 0.05 0.05 0.04 0.04 0.02 0.01 0.02 0.03 0.04 0.05 0.06 0.09 0.09 0.09 0.09 0.12 0.10
0.22 0.19 0.16 0.11 0.14 0.08 0.04 0.03 0.02 0.01 0.01 0.02 0.01 0.01 0.01 0.01 0.02 0.02 0.02 0.01 0.01 0.01 0.02 0.02 0.03 0.05 0.08 0.08 0.07 0.06 0.09 0.12
0.31 0.35 0.24 0.10 0.10 0.07 0.03 0.04 0.03 0.01 0.01 0.00 0.00 0.00 0.00 0.00 0.01 0.01 0.02 0.02 0.01 0.02 0.03 0.02 0.02 0.04 0.06 0.09 0.08 0.08 0.15 0.24
0.28 0.19 0.13 0.05 0.05 0.04 0.03 0.02 0.04 0.02 0.00 0.00 0.00 0.00 0.01 0.02 0.02 0.01 0.02 0.03 0.01 0.02 0.03 0.03 0.02 0.03 0.03 0.06 0.10 0.11 0.12 0.21
0.76 0.60 0.39 0.13 0.07 0.06 0.04 0.04 0.05 0.05 0.02 0.02 0.02 0.03 0.04 0.04 0.03 0.03 0.03 0.04 0.02 0.02 0.04 0.04 0.03 0.04 0.05 0.05 0.06 0.09 0.16 0.22
0.78 0.75 0.91 0.76 0.28 0.14 0.16 0.10 0.09 0.10 0.06 0.05 0.06 0.07 0.09 0.09 0.08 0.08 0.07 0.05 0.03 0.03 0.03 0.04 0.04 0.04 0.05 0.05 0.06 0.08 0.10 0.17
0.68 0.69 0.50 0.52 0.56 0.32 0.22 0.29 0.16 0.12 0.11 0.09 0.09 0.10 0.09 0.07 0.07 0.08 0.07 0.06 0.04 0.02 0.04 0.05 0.05 0.05 0.06 0.05 0.06 0.07 0.08 0.09
0.31 0.27 0.21 0.10 0.11 0.13 0.09 0.14 0.14 0.13 0.13 0.13 0.13 0.16 0.17 0.14 0.10 0.09 0.10 0.10 0.07 0.07 0.04 0.05 0.08 0.07 0.10 0.08 0.06 0.05 0.07 0.08
0.14 0.05 0.04 0.06 0.07 0.07 0.06 0.06 0.11 0.12 0.17 0.21 0.21 0.22 0.23 0.21 0.14 0.11 0.13 0.14 0.12 0.11 0.10 0.06 0.05 0.06 0.10 0.06 0.07 0.06 0.08 0.08
0.04 0.05 0.06 0.11 0.12 0.16 0.16 0.17 0.22 0.29 0.32 0.34 0.31 0.25 0.23 0.28 0.20 0.16 0.15 0.17 0.18 0.14 0.12 0.09 0.06 0.06 0.13 0.11 0.11 0.07 0.07 0.08